星链-1517 (STARLINK-1517 )

导读 | 豆包AI

STARLINK-1517是美国SpaceX公司星链星座中的一颗低轨通信卫星,于2020年6月13日发射。作为星链全球卫星互联网项目的组成部分,它运行在近地轨道,主要为偏远地区、灾害现场等场景提供高速宽带互联网接入服务,支撑全球无缝网络覆盖,助力应急通信、远程教育、智慧医疗等领域的互联互通,是星链星座不断扩张组网中的关键单元之一。

基本信息
目录编号:
45787
目录名称:
STARLINK-1517
国际标识:
2020-038BK
轨道中心:
EARTH
卫星名称:
星链-1517
卫星全名:
星链-1517 (STARLINK-1517 )
卫星状态:
已陨落 最后检测时间 2025-06-06
发射日期:
2020-06-13 UTC
国别 :
美国 (US)
星等 :
--
轨道信息
数据来源 国际轨道数据
星历时间: 2025-06-06T04:22:50+0800
轨道信息已过期302天
半长轴: 6542.504km
偏心率: 0.0005361
轨道倾角: 53.025°
近地点辐角 292.995°
升交点赤经 309.354°
平近点角 220.867°
近地点: 160.861km
远地点: 167.877km
周期: 87.776分钟
每日圈数: 16.405398
详细信息
固有亮度:
5
最大亮度:
2.5
卫星平台:
Starlink V1.0
覆盖范围:
全球
运营商:
太空探索技术公司
运营商所在国:
美国
制造商(研发单位):
太空探索技术公司
制造商所在国:
美国
使用方式:
暂无
卫星简介
星链(Starlink)计划是由太空探索技术公司(SpaceX)提出的一个巨型低轨卫星互联网星座项目,计划在2019年至2024年间在太空搭建由约1.2万颗卫星组成的“星链”网络,其中1584颗将部署在地球上空550千米处的近地轨道,并从2020年开始工作。该卫星仍在工作。